EDT,Max TemperatureF,Mean TemperatureF,Min TemperatureF,Max Dew PointF,MeanDew PointF,Min DewpointF,Max Humidity, Mean Humidity, Min Humidity, Max Sea Level PressureIn, Mean Sea Level PressureIn, Min Sea Level PressureIn, Max VisibilityMiles, Mean VisibilityMiles, Min VisibilityMiles, Max Wind SpeedMPH, Mean Wind SpeedMPH, Max Gust SpeedMPH,PrecipitationIn, CloudCover, Events, WindDirDegrees
2013-6-1,87,78,69,66,63,58,90,64,37,30.12,30.07,30.01,10,10,10,21,11,25,0.00,2,,217
2013-6-2,85,77,69,68,65,63,97,76,54,30.02,29.96,29.90,10,9,3,18,10,24,0.12,4,Rain,210
2013-6-3,82,75,67,68,66,63,100,81,62,29.96,29.90,29.83,10,8,2,26,6,36,0.69,6,Rain,234
2013-6-4,74,69,64,65,61,59,93,79,64,30.09,30.04,29.95,10,10,7,15,5,26,T,5,Rain,55
2013-6-5,74,69,63,65,62,56,93,78,63,30.15,30.08,30.01,10,8,2,9,5,25,0.18,7,Rain,74
2013-6-6,74,68,62,72,67,63,100,95,90,30.04,29.91,29.80,10,6,2,17,9,23,0.59,8,Rain,157
2013-6-7,76,72,68,71,67,66,93,89,84,29.85,29.71,29.61,10,7,2,15,6,29,0.52,7,Rain,29
2013-6-8,82,72,62,68,64,58,97,72,46,30.08,29.93,29.82,10,7,1,22,4,31,0.60,6,Rain,235
2013-6-9,85,76,67,70,67,64,100,76,51,30.14,30.09,30.04,10,9,0,13,5,45,0.62,4,Rain-Thunderstorm,182
2013-6-10,83,76,68,70,69,66,93,79,65,30.11,29.98,29.87,10,8,0,32,12,46,1.36,7,Fog-Rain-Thunderstorm,208
2013-6-11,84,76,67,68,64,60,100,74,47,29.96,29.93,29.90,10,10,8,17,10,23,0.01,4,Rain,258
2013-6-12,90,78,65,73,67,61,85,70,55,29.97,29.92,29.86,10,10,9,16,8,0,0.00,1,Thunderstorm,243
2013-6-13,92,80,67,73,67,57,93,69,44,29.85,29.73,29.60,10,9,4,37,10,52,0.06,1,Rain-Thunderstorm,255
2013-6-14,80,70,59,58,54,52,78,59,39,30.01,29.88,29.76,10,10,10,18,8,25,0.00,1,,331
2013-6-15,83,71,59,60,57,55,90,66,42,30.12,30.07,30.04,10,10,10,14,5,17,0.00,1,,237
2013-6-16,86,76,66,65,63,59,81,65,48,30.11,30.05,30.00,10,10,10,17,10,22,0.00,2,,225
2013-6-17,84,76,68,71,68,65,93,76,58,30.05,29.99,29.93,10,9,1,17,7,21,0.47,6,Rain-Thunderstorm,221
2013-6-18,80,74,68,71,68,64,97,86,74,29.99,29.87,29.78,10,9,1,17,7,22,0.53,7,Rain,237
2013-6-19,80,72,64,66,64,62,100,79,58,30.12,30.00,29.89,10,10,7,12,6,17,0.00,4,,60
2013-6-20,81,73,64,64,63,61,100,77,54,30.27,30.21,30.13,10,8,2,12,6,15,0.00,5,,66
2013-6-21,82,72,61,61,57,54,90,66,42,30.27,30.23,30.19,10,10,10,16,7,21,0.00,1,,56
2013-6-22,83,73,63,68,64,56,93,74,55,30.25,30.20,30.12,10,9,1,14,6,16,0.00,6,,38
2013-6-23,87,77,67,70,68,64,93,71,48,30.23,30.17,30.11,10,10,8,16,5,30,0.01,5,,215
2013-6-24,87,79,70,71,69,67,100,78,55,30.23,30.16,30.09,10,8,0,17,8,22,0.08,6,Fog,216
2013-6-25,89,80,70,72,69,66,100,75,50,30.12,30.07,29.99,10,9,1,17,8,21,0.95,5,Rain-Hail-Thunderstorm,228
2013-6-26,89,79,68,71,68,63,97,75,52,30.03,29.96,29.89,10,10,2,30,8,36,0.23,4,Rain-Thunderstorm,234
2013-6-27,86,77,68,72,69,65,97,79,61,29.92,29.81,29.71,10,9,2,17,9,23,T,6,,233
2013-6-28,89,80,70,73,70,66,100,76,51,29.73,29.66,29.58,10,8,1,33,9,40,1.04,4,Rain-Thunderstorm,239
2013-6-29,85,77,68,71,68,62,100,74,48,29.70,29.65,29.60,10,8,1,17,7,26,T,6,Rain,215
2013-6-30,84,77,69,72,69,66,97,78,58,29.86,29.78,29.69,10,9,2,17,7,35,0.31,7,Rain-Thunderstorm,195